Tekamah, NE

1:23 PM CST on December 07, 2016 (GMT -0600)
Tekamah

Weather History for KTQE - August, 2013

Change the Weather History Date:

Thursday, August 1, 2013

  Actual Average Record
Temperature  
Mean Temperature 72 °F -  
Max Temperature 88 °F 86 °F 101 °F (1953)
Min Temperature 55 °F 61 °F 52 °F (1968)
Cooling Degree Days 6    
Growing Degree Days 22 (Base 50)    
Moisture  
Dew Point 63 °F    
Average Humidity 81    
Maximum Humidity 96    
Minimum Humidity 43    
Precipitation  
Precipitation 0.22 in - - ()
Sea Level Pressure  
Sea Level Pressure 30.01 in    
Wind  
Wind Speed 4 mph (SW)    
Max Wind Speed 13 mph    
Max Gust Speed 18 mph    
Visibility 6 miles    
Events Rain , Thunderstorm    
Averages and records for this station are not official NWS values.
T = Trace of Precipitation, MM = Missing Value Source: NWS Daily Summary

Daily Weather History Graph

Daily Weather History Graph

Search for Another Location

Airport or City:

Trip Planner

Search our weather history database for the weather conditions in past years. The results will help you decide how hot, cold, wet, or windy it might be!

Date:

Astronomy

Aug. 01, 2013 Rise Set
Actual Time 6:19 AM CDT 8:42 PM CDT
Civil Twilight 5:47 AM CDT 9:13 PM CDT
Nautical Twilight 5:08 AM CDT 9:52 PM CDT
Astronomical Twilight 4:25 AM CDT 10:35 PM CDT
Moon 1:55 AM CDT (8/1) 4:52 PM CDT (8/1)
Length of Visible Light 15h 25m
Length of Day
14h 23m
Waning Crescent, 23% of the Moon is Illuminated
Aug 1
Waning Crescent
Aug 6
New
Aug 14
First Quarter
Aug 20
Full
Aug 28
Last Quarter

Hourly Weather History & Observations

Time (CDT) Temp. Heat Index Dew Point Humidity Pressure Visibility Wind Dir Wind Speed Gust Speed Precip Events Conditions
12:54 AM 63.0 °F - 59.0 °F 87% 30.06 in 8.0 mi NNW 3.5 mph - N/A   Clear
1:54 AM 61.0 °F - 57.9 °F 90% 30.06 in 8.0 mi Calm Calm - N/A   Clear
2:54 AM 59.0 °F - 57.0 °F 93% 30.06 in 5.0 mi Calm Calm - N/A   Clear
3:54 AM 57.9 °F - 55.0 °F 90% 30.05 in 6.0 mi WNW 3.5 mph - N/A   Clear
4:54 AM 57.0 °F - 55.0 °F 93% 30.06 in 5.0 mi South 3.5 mph - N/A   Clear
5:54 AM 55.9 °F - 54.0 °F 93% 30.05 in 7.0 mi Calm Calm - N/A   Clear
6:54 AM 57.0 °F - 55.0 °F 93% 30.06 in 3.0 mi SSW 3.5 mph - N/A   Clear
7:08 AM 57.2 °F - 55.4 °F 94% 30.10 in 2.5 mi Calm Calm - N/A   Clear
7:43 AM 62.6 °F - 59.0 °F 88% 30.10 in 1.8 mi Calm Calm - N/A   Partly Cloudy
7:50 AM 62.6 °F - 60.8 °F 94% 30.10 in 0.8 mi South 3.5 mph - N/A   Mist
7:54 AM 62.1 °F - 61.0 °F 96% 30.07 in 0.8 mi South 3.5 mph - N/A   Mist
8:00 AM 62.6 °F - 60.8 °F 94% 30.10 in 1.2 mi Calm Calm - N/A   Scattered Clouds
8:10 AM 64.4 °F - 62.6 °F 94% 30.10 in 3.0 mi Calm Calm - N/A   Scattered Clouds
8:54 AM 71.1 °F - 64.0 °F 78% 30.06 in 5.0 mi Calm Calm - N/A   Haze
9:54 AM 77.0 °F - 66.0 °F 69% 30.05 in 8.0 mi South 6.9 mph - N/A   Clear
10:54 AM 81.0 °F 82.7 °F 64.9 °F 58% 30.04 in 10.0 mi SSW 6.9 mph - N/A   Partly Cloudy
11:54 AM 82.9 °F 85.8 °F 68.0 °F 60% 30.04 in 10.0 mi South 6.9 mph - N/A   Mostly Cloudy
12:54 PM 86.0 °F 88.8 °F 66.9 °F 53% 30.01 in 10.0 mi South 11.5 mph 17.3 mph N/A   Clear
1:54 PM 86.0 °F 88.8 °F 66.9 °F 53% 29.99 in 9.0 mi SW 12.7 mph 18.4 mph N/A   Clear
2:54 PM 88.0 °F 88.7 °F 63.0 °F 43% 29.96 in 10.0 mi SW 10.4 mph - N/A   Clear
3:54 PM 82.9 °F 84.0 °F 63.0 °F 51% 29.97 in 10.0 mi SW 5.8 mph - N/A   Clear
4:54 PM 77.0 °F - 68.0 °F 74% 29.99 in 5.0 mi NNW 3.5 mph - 0.01 in Rain Light Rain
5:16 PM 75.2 °F - 69.8 °F 83% 30.04 in 3.0 mi NW 8.1 mph - 0.02 in Rain , Thunderstorm Light Thunderstorms and Rain
5:18 PM 75.2 °F - 69.8 °F 83% 30.04 in 1.5 mi WNW 10.4 mph - 0.05 in Rain , Thunderstorm Light Thunderstorms and Rain
5:27 PM 73.4 °F - 68.0 °F 83% 30.03 in 0.8 mi NW 5.8 mph - 0.09 in Rain , Thunderstorm Rain
5:34 PM 73.4 °F - 68.0 °F 83% 30.01 in 2.0 mi West 4.6 mph - 0.09 in Rain , Thunderstorm Light Rain
5:45 PM 73.4 °F - 68.0 °F 83% 30.02 in 4.0 mi WNW 3.5 mph - 0.10 in Rain , Thunderstorm Light Rain
5:54 PM 72.0 °F - 66.9 °F 84% 30.01 in 4.0 mi West 5.8 mph - 0.11 in Rain , Thunderstorm Light Rain
6:35 PM 71.6 °F - 66.2 °F 83% 29.97 in 2.5 mi South 10.4 mph - 0.07 in Rain Rain
6:43 PM 71.6 °F - 66.2 °F 83% 29.95 in 4.0 mi SSE 9.2 mph - 0.08 in Rain Light Rain
6:54 PM 71.1 °F - 66.9 °F 87% 29.92 in 6.0 mi SSE 6.9 mph - 0.09 in Rain Light Rain
7:54 PM 71.1 °F - 64.9 °F 81% 29.88 in 10.0 mi SSE 8.1 mph - 0.01 in   Clear
8:54 PM 71.1 °F - 64.9 °F 81% 29.87 in 10.0 mi SSW 4.6 mph - N/A   Clear
9:54 PM 72.0 °F - 64.0 °F 76% 29.87 in 10.0 mi Variable 3.5 mph - 0.00 in   Partly Cloudy
10:54 PM 70.0 °F - 64.0 °F 81% 29.86 in 10.0 mi SW 3.5 mph - N/A   Scattered Clouds
11:54 PM 66.9 °F - 64.0 °F 90% 29.88 in 7.0 mi NNE 4.6 mph - N/A   Clear